Home > Time Zones > World Clock > Weather > Latvia > Riga > Past weeks

Flag for Latvia Weather past 2 weeks in Riga, Latvia

Now
59 °F

Clear.


Feels Like: 59 °F
Forecast: 55 / 70 °F
Wind: No wind

Location: Riga Airport

Current Time: Aug 3, 2015 at 2:24:23 AM

Latest Report: Aug 3, 2015 at 1:50 AM


Visibility: 10 mi

Pressure: 30.12 "Hg

Humidity: 82%

Dew point: 54 °F

Location of RigaLocation

Historic Weather in Riga — Graph

°F

Riga temperature yesterday

Maximum temperature yesterday: 73 °F (at 2:50 PM)
Minimum temperature yesterday: 46 °F (at 5:50 AM)
Average temperature yesterday: 62 °F

Past Weeks' High & Low Weather Summary

 TemperatureHumidityPressure
High75 °F (Jul 25, 4:50 PM)100% (Jul 19, 12:20 AM)30.18 "Hg (Jul 19, 12:20 AM)
Low45 °F (Jul 25, 3:20 AM)35% (Jul 19, 4:20 PM)29.53 "Hg (Jul 28, 5:20 PM)
Average62 °F77%29.77 "Hg
* Reported Jul 19 12:20 AM — Aug 3 12:20 AM, Riga, Weather by CustomWeather, © 2015

Note: Actual official high and low records may vary slightly from our data, if they occured in-between our weather recording intervals... More about our weather records

Advertising

Riga weather history for previous 24 hours

 ConditionsComfort  
Time TempWeatherWind HumidityBarometerVisibility
12:20 AM
Mon, Aug 3
59 °FClear.5 mph82%30.12 "Hg10 mi
11:50 PM
Sun, Aug 2
61 °FClear.5 mph77%30.12 "Hg10 mi
11:20 PM64 °FClear.5 mph68%30.12 "Hg10 mi
10:50 PM64 °FClear.5 mph68%30.12 "Hg10 mi
10:20 PM64 °FClear.3 mph68%30.12 "Hg6 mi
9:50 PM64 °FSunny.3 mph68%30.12 "Hg10 mi
9:20 PM66 °FSunny.5 mph64%30.12 "Hg10 mi
8:50 PM68 °FSunny.5 mph60%30.12 "Hg10 mi
8:20 PM70 °FPassing clouds.6 mph53%30.12 "HgN/A
7:50 PM72 °FPassing clouds.8 mph47%30.12 "HgN/A
7:20 PM72 °FPassing clouds.9 mph50%30.12 "HgN/A
6:50 PM72 °FPassing clouds.5 mph44%30.12 "HgN/A
6:20 PM72 °FPassing clouds.5 mph47%30.12 "HgN/A
5:50 PM72 °FPassing clouds.9 mph47%30.12 "HgN/A
5:20 PM73 °FPassing clouds.9 mph44%30.12 "HgN/A
4:50 PM72 °FPassing clouds.9 mph50%30.12 "HgN/A
4:20 PM72 °FPassing clouds.12 mph47%30.12 "HgN/A
3:50 PM72 °FPassing clouds.12 mph44%30.15 "HgN/A
3:20 PM73 °FPassing clouds.14 mph44%30.15 "HgN/A
2:50 PM73 °FPassing clouds.13 mph44%30.15 "HgN/A
2:20 PM72 °FScattered clouds.14 mph44%30.15 "HgN/A
1:50 PM70 °FScattered clouds.10 mph46%30.18 "HgN/A
1:20 PM70 °FScattered clouds.13 mph43%30.18 "HgN/A
12:50 PM68 °FScattered clouds.12 mph53%30.18 "HgN/A
12:20 PM66 °FScattered clouds.12 mph56%30.18 "HgN/A
11:50 AM64 °FScattered clouds.10 mph60%30.18 "HgN/A
11:20 AM64 °FPassing clouds.10 mph60%30.18 "HgN/A
10:50 AM63 °FPassing clouds.9 mph64%30.18 "HgN/A
10:20 AM63 °FPassing clouds.8 mph64%30.18 "HgN/A
9:50 AM61 °FPassing clouds.9 mph77%30.18 "HgN/A
9:20 AM59 °FSunny.8 mph77%30.18 "Hg10 mi
8:50 AM57 °FSunny.8 mph88%30.18 "Hg10 mi
8:20 AM55 °FSunny.7 mph88%30.18 "Hg10 mi
7:50 AM54 °FSunny.6 mph94%30.18 "Hg10 mi
7:20 AM52 °FSunny.5 mph94%30.18 "Hg10 mi
6:50 AM50 °FSunny.5 mph100%30.18 "Hg10 mi
6:20 AM48 °FClear.5 mph100%30.18 "Hg10 mi
5:50 AM46 °FFog.5 mph100%30.15 "Hg6 mi
5:20 AM48 °FLight fog.6 mph100%30.15 "Hg5 mi
4:50 AM48 °FFog.5 mph100%30.15 "Hg6 mi
4:20 AM50 °FFog.3 mph100%30.15 "Hg6 mi
3:50 AM52 °FFog.5 mph100%30.15 "HgN/A
3:20 AM52 °FFog.5 mph94%30.15 "HgN/A
2:50 AM52 °FClear.3 mph94%30.15 "Hg10 mi
2:20 AM54 °FPassing clouds.3 mph94%30.12 "HgN/A
Weather by CustomWeather, © 2015

See weather overviewHow to use our weather pages